Grissom Arb, IN

11:58 PM EDT on July 27, 2016 (GMT -0400)
Grissom Air Reserve Base

Weather History for KGUS - March, 2014

Change the Weather History Date:

Tuesday, March 4, 2014

  Actual Average Record
Temperature  
Mean Temperature 14 °F -  
Max Temperature 24 °F 39 °F 56 °F (2011)
Min Temperature 5 °F 25 °F 1 °F (2002)
Degree Days  
Heating Degree Days 50    
Moisture  
Dew Point 7 °F    
Average Humidity 69    
Maximum Humidity 77    
Minimum Humidity 59    
Precipitation  
Precipitation 0.00 in - - ()
Snow  
Snow 0.00 in - - ()
Snow Depth 1.00 in    
Sea Level Pressure  
Sea Level Pressure 30.31 in    
Wind  
Wind Speed 5 mph (ESE)    
Max Wind Speed 8 mph    
Max Gust Speed -    
Visibility 10 miles    
Events      
Averages and records for this station are not official NWS values.
T = Trace of Precipitation, MM = Missing Value Source: NWS Daily Summary

Daily Weather History Graph

Daily Weather History Graph

Search for Another Location

Airport or City:

Trip Planner

Search our weather history database for the weather conditions in past years. The results will help you decide how hot, cold, wet, or windy it might be!

Date:

Astronomy

Mar. 04, 2014 Rise Set
Actual Time 7:13 AM EST 6:39 PM EST
Civil Twilight 6:46 AM EST 7:06 PM EST
Nautical Twilight 6:14 AM EST 7:38 PM EST
Astronomical Twilight 5:43 AM EST 8:10 PM EST
Moon 8:58 AM EST (3/4) 10:47 PM EST (3/4)
Length of Visible Light 12h 20m
Length of Day
11h 25m
Waxing Crescent, 14% of the Moon is Illuminated
Mar 4
Waxing Crescent
Mar 8
First Quarter
Mar 16
Full
Mar 23
Last Quarter
Mar 30
New

Hourly Weather History & Observations

Time (EST) Temp. Windchill Dew Point Humidity Pressure Visibility Wind Dir Wind Speed Gust Speed Precip Events Conditions
12:58 AM 7.7 °F -0.9 °F -0.8 °F 68% 30.43 in 10.0 mi ESE 4.6 mph - N/A   Clear
1:58 AM 7.5 °F 0.8 °F -0.4 °F 70% 30.42 in 10.0 mi East 3.5 mph - N/A   Clear
2:58 AM 7.9 °F -4.6 °F 0.3 °F 71% 30.37 in 10.0 mi ESE 8.1 mph - N/A   Clear
3:58 AM 7.9 °F -0.7 °F 0.3 °F 71% 30.38 in 10.0 mi ESE 4.6 mph - N/A   Clear
4:58 AM 5.9 °F -4.5 °F -0.4 °F 75% 30.38 in 10.0 mi NE 5.8 mph - N/A   Clear
5:58 AM 7.7 °F -2.4 °F 1.2 °F 75% 30.38 in 10.0 mi ESE 5.8 mph - N/A   Overcast
6:58 AM 8.4 °F -3.9 °F 2.1 °F 76% 30.37 in 10.0 mi ESE 8.1 mph - N/A   Overcast
7:58 AM 9.3 °F -1.7 °F 3.4 °F 77% 30.36 in 10.0 mi SE 6.9 mph - N/A   Overcast
8:58 AM 11.1 °F 4.9 °F 3.9 °F 73% 30.36 in 10.0 mi SSE 3.5 mph - N/A   Overcast
9:58 AM 13.8 °F 6.2 °F 5.5 °F 70% 30.35 in 10.0 mi South 4.6 mph - N/A   Overcast
10:58 AM 16.7 °F 8.3 °F 7.2 °F 66% 30.31 in 10.0 mi South 5.8 mph - N/A   Overcast
11:58 AM 19.6 °F 11.7 °F 8.8 °F 63% 30.30 in 10.0 mi SSW 5.8 mph - N/A   Overcast
12:58 PM 20.1 °F 12.3 °F 10.4 °F 66% 30.31 in 10.0 mi SW 5.8 mph - N/A   Overcast
1:58 PM 21.6 °F 16.8 °F 11.5 °F 65% 30.25 in 10.0 mi WNW 3.5 mph - N/A   Overcast
2:58 PM 22.5 °F - 11.5 °F 63% 30.24 in 10.0 mi West 2.3 mph - N/A   Overcast
3:58 PM 23.9 °F - 11.5 °F 59% 30.24 in 10.0 mi West 2.3 mph - N/A   Partly Cloudy
4:58 PM 24.3 °F - 11.8 °F 59% 30.23 in 10.0 mi Calm Calm - N/A   Clear
5:58 PM 24.4 °F - 13.1 °F 62% 30.24 in 10.0 mi West 1.2 mph - N/A   Mostly Cloudy
6:58 PM 23.2 °F - 11.7 °F 61% 30.24 in 10.0 mi ESE 1.2 mph - N/A   Scattered Clouds
7:58 PM 20.3 °F 15.4 °F 11.3 °F 68% 30.25 in 10.0 mi NE 3.5 mph - N/A   Clear
8:58 PM 16.2 °F 5.5 °F 9.5 °F 75% 30.25 in 10.0 mi NE 8.1 mph - N/A   Clear
9:58 PM 15.1 °F 6.4 °F 7.9 °F 73% 30.25 in 10.0 mi ENE 5.8 mph - N/A   Clear
10:58 PM 15.6 °F 8.3 °F 8.1 °F 72% 30.27 in 10.0 mi ENE 4.6 mph - N/A   Clear
11:58 PM 14.2 °F 6.7 °F 7.5 °F 75% 30.27 in 10.0 mi ENE 4.6 mph - N/A   Clear